sat.trackr.live / text

‹ back to catalog

PALISADE

NORAD 44634 · 2019-069A

PAYLOAD ACTIVE UNKNOWN

§ Identity

Operator
Country
US
Launch date
2019-10-17
Launch site
RLLB
Launch vehicle
Mass (kg)
RCS (m²)

External: N2YO · Heavens-Above · Gunter

§ Orbital elements

Epoch: 2026-09-19T22:16:03.031104Z

Period
109.76 min
Inclination
87.8808°
Eccentricity
0.0009715
Mean motion
13.11907086 rev/d
Perigee alt
1,208.4 km
Apogee alt
1,223.2 km
Semi-major
7,593.9 km
B*
2.4308e-4
RAAN
260.8636°
Arg perigee
161.8735°
Mean anomaly
198.2741°
Rev number
33,153

§ Raw data

PALISADE1 44634U 19069A   26262.92781286  .00000100  00000+0  24308-3 0  99972 44634  87.8808 260.8636 0009715 161.8735 198.2741 13.11907086331539

JSON: /api/v1/satellites/44634 · /tle

For live sub-satellite position, see the globe view (requires WebGL).

§ Visibility from observer

Set your observer location to see the next 7 days of passes ≥ 10°. The values pass through the URL so the page stays shareable.

No JS? Fill the form by hand. The geolocation button needs JavaScript.